Location: ???????
(54.6339°N, 39.4245°E)
Time: 07:22:54
(UTC+00:00)

Resurs 1-4 Rocket - Pass Details

Date: 19 May 2025
Orbit: 797 x 813 km, 98.8° (Epoch: 23 June)

Event Time Altitude Azimuth Distance (km) Brightness Sun altitude
Rises 23:13:16 0° 19° (NNE) 3,325 7.3 -11.5°
Reaches altitude 10° 23:15:45 10° 27° (NNE) 2,388 6.2 -11.3°
Maximum altitude 23:20:44 41° 98° (E) 1,144 3.1 -11.0°
Drops below altitude 10° 23:25:40 10° 168° (SSE) 2,367 4.1 -10.6°
Enters shadow 23:26:32 - 171° (S) 2,694 4.4 -10.5°
